Regional Weather Roundup
Issued by NWS Raleigh/Durham, NC

Current Version | Previous Version | Text Only | Print | Product List | Glossary On
Versions: 1 2 3 4 5 6 7 8 9 10 11 12 13 14 15 16 17 18 19 20 21 22 23 24 25 26 27 28 29 30 31 32 33 34 35 36 37 38 39 40 41 42 43 44 45 46 47 48 49 50
000 ASUS42 KRAH 301010 RWRRAH NORTH CAROLINA WEATHER ROUNDUP NATIONAL WEATHER SERVICE RALEIGH NC 500 AM EST FRI JAN 30 2015 NOTE: "FAIR" INDICATES FEW OR NO CLOUDS BELOW 12,000 FEET WITH NO SIGNIFICANT WEATHER AND/OR OBSTRUCTIONS TO VISIBILITY. NCZ001-053-055-056-065-067-301100- WESTERN NORTH CAROLINA CITY SKY/WX TMP DP RH WIND PRES REMARKS ASHEVILLE MIX PCPN 35 27 72 N16G28 30.08R WCI 25 JEFFERSON CLOUDY 30 21 69 NW25G37 29.94S WCI 16 MORGANTON CLOUDY 41 28 59 NW7 30.10R HICKORY MOCLDY 41 26 55 NW14G23 30.04R RUTHERFORDTON CLOUDY 42 31 64 N3 30.06R MOUNT AIRY CLOUDY 41 28 59 W7 30.04R BOONE MIX PCPN 30 26 85 NW31G47 29.97R WCI 14 $$ NCZ021-022-025-041-071-084-088-301100- CENTRAL NORTH CAROLINA CITY SKY/WX TMP DP RH WIND PRES REMARKS CHARLOTTE CLEAR 45 28 51 NW12G17 30.01R GREENSBORO CLEAR 42 28 57 NW17G24 29.98R WINSTON-SALEM PTCLDY 42 27 55 NW17G26 30.02R RALEIGH-DURHAM LGT RAIN 39 28 64 SW3 29.97R FORT BRAGG CLOUDY 46 36 66 W8 29.96S FAYETTEVILLE CLOUDY 47 38 71 W8 29.96S BURLINGTON MOCLDY 42 27 55 W8 29.97R LAURINBURG CLOUDY 43 37 79 W5 29.99R $$ NCZ011-015-027-028-043-044-047-080-103-301100- NORTHEASTERN NORTH CAROLINA CITY SKY/WX TMP DP RH WIND PRES REMARKS ROCKY MT-WILSO CLOUDY 43 34 70 SW8 29.96R GREENVILLE CLOUDY 45 37 76 SW6 29.97S WASHINGTON CLOUDY 45 38 74 SW6 29.95S ELIZABETH CITY CLOUDY 46 36 68 SW9 29.93F MANTEO CLOUDY 45 39 81 S6 29.93F CAPE HATTERAS CLOUDY 50 45 83 W10 29.95F $$ NCZ078-087-090-091-093-098-101-301100- SOUTHEASTERN NORTH CAROLINA CITY SKY/WX TMP DP RH WIND PRES REMARKS LUMBERTON CLOUDY 47 40 76 SW3 29.97S GOLDSBORO CLOUDY 44 43 98 CALM 29.94F KINSTON CLOUDY 47 40 76 SW7 29.96S KENANSVILLE CLOUDY 44 40 83 SW3 29.97S NEW BERN MOCLDY 50 40 68 SW6 29.97S CHERRY POINT CLOUDY 51 41 68 SW8 29.97F BEAUFORT CLOUDY 51 47 86 SW13 29.96F JACKSONVILLE MOCLDY 49 42 77 SW7 29.96F WILMINGTON CLOUDY 50 44 80 SW7 29.98F $$

USA.gov is the U.S. government's official web portal to all federal, state and local government web resources and services.